Location: Advent Pentecost Church
(32.7757°N, 96.7408°W)
Time: 15:04:04
(UTC+00:00)

N. Korean satellite - Pass Details

Date: 25 October 2021
Orbit: 447 x 495 km, 97.3° (Epoch: 03 December)

Event Time Altitude Azimuth Distance (km) Brightness Sun altitude
Rises 11:23:47 0° 16° (NNE) 2,582 10.4 -16.5°
Reaches altitude 10° 11:25:54 10° 21° (NNE) 1,690 9.5 -16.0°
Maximum altitude 11:29:29 56° 100° (E) 586 7.3 -15.3°
Drops below altitude 10° 11:32:59 10° 179° (S) 1,656 9.3 -14.5°
Sets 11:35:03 0° 184° (S) 2,523 10.2 -14.1°
